Regional Weather Roundup
Issued by NWS Newport/Morehead, NC

Current Version | Previous Version | Text Only | Print | Product List | Glossary On
Versions: 1 2 3 4 5 6 7 8 9 10 11 12 13 14 15 16 17 18 19 20 21 22 23 24 25 26 27 28 29 30 31 32 33 34 35 36 37 38 39 40 41 42 43 44 45 46 47 48 49 50
513 ASUS42 KMHX 241725 RWRMHX WEATHER ROUNDUP FOR EASTERN NORTH CAROLINA NATIONAL WEATHER SERVICE NEWPORT/MOREHEAD CITY NC 1200 PM EST FRI FEB 24 2017 NOTE: "FAIR" INDICATES FEW OR NO CLOUDS BELOW 12,000 FEET WITH NO SIGNIFICANT WEATHER AND/OR OBSTRUCTIONS TO VISIBILITY NCZ015>017-031-032-045>047-102-103-241800- NORTH COAST CITY SKY/WX TMP DP RH WIND PRES REMARKS EDENTON MOSUNNY 77 59 54 S5 29.93F ELIZABETH CITY MOSUNNY 73 59 61 E12 29.93F KITTY HAWK NOT AVBL MANTEO SUNNY 69 59 70 E8 29.93F $$ NCZ045>047-081-094-103-104-241800- CENTRAL COAST CITY SKY/WX TMP DP RH WIND PRES REMARKS FRISCO SUNNY 75 61 61 SE12 29.92F HAZE $$ NCZ095-097-098-100-101-241800- SOUTHERN COAST CITY SKY/WX TMP DP RH WIND PRES REMARKS BEAUFORT SUNNY 75 58 55 E7 29.90F CEDAR ISLAND NOT AVBL JACKSONVILLE NOT AVBL PINEY ISLAND MOSUNNY N/A N/A N/A NE7 29.91F WILMINGTON SUNNY 75 60 59 E9 29.90F $$ NCZ011>013-027>030-043-044-078>080-089-090>093-098-241800- COASTAL PLAIN CITY SKY/WX TMP DP RH WIND PRES REMARKS AHOSKIE N/A 73 57 57 S3 29.92F CLINTON MOSUNNY 77 61 57 E3 29.90F ELIZABETHTOWN MOSUNNY 77 59 53 SE5 29.90F GOLDSBORO MOSUNNY 74 61 64 SE3 29.90F GREENVILLE CLOUDY 75 59 57 CALM 29.93F HAVELOCK PTSUNNY 73 61 65 NE10 29.92F KENANSVILLE MOSUNNY 73 57 56 S6 29.90F KINSTON PTSUNNY 73 57 56 NE5 29.92F NEW BERN MOSUNNY 74 61 63 E10 29.92F RICHLANDS MOSUNNY 74 59 59 E3 29.91F ROCKY MOUNT MOSUNNY 74 60 61 S6 29.92F WASHINGTON PTSUNNY 75 60 59 E8 29.92F WHITEVILLE MOSUNNY 74 59 58 E7 29.89F $$ AMZ130-135-150-152-154-156-158-170-250-252-270-ANZ085-086-088-633-658-670-241800- MARINE OBSERVATIONS STATION/POSITION TIME TEMP WIND PRES WAVE SWELL AIR SEA DIR/SP/G HT/PER HT/PER (UTC) (F) (DEG/KT/KT) (MB) (FT/S) (FT/S) CHESAPEAKE LIGHT NOT AVBL 64 E VA BEACH 1650 59 56 150/ 6/ 8 1014.2 6/13 5/13 DUCK 1700 65 50 90/ 6/ 8 1013.1 2 E DUCK 1700 53 N/A 4/13 2/13 OREGON INLET 1700 60 56 40/ 6/ 10 1013.5 13E OREGON INLT NOT AVBL HATTERAS CG 1700 70 62 100/ 8/ 11 1012.7 DIAMOND BUOY 1650 72 74 130/ 17/ 21 1012.8 7/ 9 5/ 9 CAPE LOOKOUT 1700 67 40/ 8/ 9 1012.2 BEAUFORT LAB 1700 71 60 120/ 8/ 12 1011.6 30 SE NEW RVR IN 1708 66 40/ 6/ 10 1012.3 30 SE NEW RVR IN 1713 70 N/A 7/11 3/11 27 SE WRIGHTSVLE 1708 67 66 40/ 10/ 16 1011.5 5 SE WRIGHTSVLE 1708 62 59 50/ 8/ 12 1012.4 225 S CAPE HAT 1650 68 70 140/ 12/ 17 1007.1 11/ 8 10/ 8 41 SE CHARLESTON 1650 68 70 20/ 14/ 16 1011.3 9/11 8/11 $$

USA.gov is the U.S. government's official web portal to all federal, state and local government web resources and services.